Location: Unspecified
(48.7670°N, 0.0000°E)
Time: 12:22:34
(UTC+00:00)

A-11 Canister half - Pass Details

Date: 30 June 2019
Orbit: 1526 x 1683 km, 47.3° (Epoch: 22 July)

Event Time Altitude Azimuth Distance (km) Brightness Sun altitude
Exits shadow 23:41:13 12° 134° (SE) 3,619 10.5 -17.9°
Maximum altitude 23:42:47 13° 124° (SE) 3,569 10.6 -17.9°
Drops below altitude 10° 23:46:23 10° 101° (E) 3,766 10.9 -18.0°
Sets 23:51:51 0° 76° (ENE) 4,724 11.7 -18.0°
